This is the latest recevied weather packets stored in our database for station/object KD2SIG. If no packets are shown the sender has not sent any weather packets the latest 10 day(s).
| Time | Temp. | Humidity | Pressure | Rain* | Wind** | Luminosity | Snow |
|---|---|---|---|---|---|---|---|
| 1777071928 | 11.67° C | 39% | 1012.7 hPa | 0 mm | - | 29 W/m² | - |
| 1777071624 | 11.67° C | 40% | 1012.6 hPa | 0 mm | - | 34 W/m² | - |
| 1777071320 | 11.67° C | 40% | 1012.5 hPa | 0 mm | - | 41 W/m² | - |
| 1777071015 | 11.67° C | 40% | 1012.5 hPa | 0 mm | - | 40 W/m² | - |
| 1777070712 | 12.22° C | 40% | 1012.5 hPa | 0 mm | - | 43 W/m² | - |
| 1777070409 | 12.22° C | 40% | 1012.7 hPa | 0 mm | - | 49 W/m² | - |
| 1777070108 | 12.22° C | 39% | 1013 hPa | 0 mm | - | 49 W/m² | - |
| 1777069803 | 12.78° C | 38% | 1012.9 hPa | 0 mm | - | 78 W/m² | - |
| 1777069501 | 12.78° C | 38% | 1013.2 hPa | 0 mm | - | 85 W/m² | - |
| 1777069199 | 12.78° C | 36% | 1013.1 hPa | 0 mm | - | 103 W/m² | - |
| 1777068895 | 13.33° C | 37% | 1013.1 hPa | 0 mm | - | 151 W/m² | - |
| 1777068591 | 13.33° C | 36% | 1013.3 hPa | 0 mm | - | 169 W/m² | - |
| 1777068290 | 13.33° C | 36% | 1013.1 hPa | 0 mm | - | 187 W/m² | - |
| 1777067985 | 13.89° C | 37% | 1013.1 hPa | 0 mm | - | 195 W/m² | - |
| 1777067684 | 13.33° C | 36% | 1013 hPa | 0 mm | - | 214 W/m² | - |
| 1777067379 | 13.33° C | 36% | 1013.1 hPa | 0 mm | - | 223 W/m² | - |
| 1777067073 | 13.33° C | 36% | 1013 hPa | 0 mm | - | 244 W/m² | - |
| 1777066768 | 13.89° C | 36% | 1012.9 hPa | 0 mm | - | 257 W/m² | - |
| 1777066465 | 13.33° C | 36% | 1012.9 hPa | 0 mm | - | 267 W/m² | - |
| 1777066160 | 13.33° C | 36% | 1013 hPa | 0 mm | - | 306 W/m² | - |
| 1777065854 | 13.33° C | 35% | 1013 hPa | 0 mm | - | 314 W/m² | - |
| 1777065550 | 13.33° C | 34% | 1012.8 hPa | 0 mm | - | 331 W/m² | - |
| 1777065249 | 13.33° C | 35% | 1013 hPa | 0 mm | - | 338 W/m² | - |
| 1777064947 | 13.89° C | 34% | 1012.8 hPa | 0 mm | - | 340 W/m² | - |
| 1777064643 | 13.89° C | 34% | 1012.7 hPa | 0 mm | - | 367 W/m² | - |
* Rain latest hour (hover to see other rain measurements)
** Current wind speed in m/s (hover to see current wind gust speed)